Date String (YYYY-MM-DD hh:mm:ss) UTC,Instrument flags,Ambient pressure (hPa),Sample flow (lpm),Bypass flow (lpm),Sample temperature (°C),Ambient temperature (°C),ASC tube jacket temperature (°C),LED temperature (°C),Box temperature (°C),Sample RH (%),Span deviation,Mass concentration (μg/m³),Mass concentration (μg/m³),Mass concentration (μg/m³)
DateTimeUTC,F1_M11,P_M11,Q1_M11,Q2_M11,T1_M11,T2_M11,T3_M11,T4_M11,T5_M11,U1_M11,ZSPAN_M11,X0_M11,X2_M11,X1_M11
2022-03-19 10:00:00,,0826.1,5.00,0.00,22.5,21.5,00.0,31.5,24.2,08.4,0000.0,0005.34,0003.11,0002.05
2022-03-19 10:01:00,,0826.1,5.01,0.00,22.5,21.5,00.0,31.5,24.2,08.2,0000.0,0005.21,0003.10,0002.04
2022-03-19 10:02:00,,0826.1,5.00,0.00,22.5,21.5,00.0,31.5,24.1,08.2,0000.0,0005.22,0003.11,0002.05
2022-03-19 10:03:00,,0826.0,5.00,0.00,22.4,21.5,00.0,31.5,24.1,08.1,0000.0,0005.13,0003.08,0002.05
2022-03-19 10:04:00,,0826.0,5.01,0.00,22.4,21.5,00.0,31.5,24.2,08.0,0000.0,0005.04,0003.04,0002.02
2022-03-19 10:05:00,,0826.1,5.00,0.00,22.4,21.5,00.0,31.5,24.1,08.1,0000.0,0004.95,0003.03,0002.00
2022-03-19 10:06:00,,0826.1,5.00,0.00,22.4,21.5,00.0,31.5,24.1,08.1,0000.0,0004.93,0003.00,0001.99
2022-03-19 10:07:00,,0826.1,5.00,0.00,22.4,21.5,00.0,31.5,24.1,08.1,0000.0,0005.04,0003.02,0001.99
2022-03-19 10:08:00,,0826.0,5.00,0.00,22.4,21.5,00.0,31.5,24.1,08.0,0000.0,0005.20,0003.03,0001.98
2022-03-19 10:09:00,,0826.1,5.00,0.00,22.4,21.5,00.0,31.4,24.2,08.0,0000.0,0005.53,0003.09,0001.96
2022-03-19 10:10:00,,0826.0,4.99,0.00,22.4,21.5,00.0,31.4,24.2,08.0,0000.0,0005.46,0003.06,0001.94
2022-03-19 10:11:00,,0826.1,5.00,0.00,22.4,21.5,00.0,31.4,24.2,08.0,0000.0,0005.38,0003.01,0001.93
2022-03-19 10:12:00,,0826.1,5.00,0.00,22.4,21.5,00.0,31.4,24.2,08.0,0000.0,0005.40,0002.96,0001.93
2022-03-19 10:13:00,,0826.1,5.00,0.00,22.4,21.5,00.0,31.4,24.2,08.0,0000.0,0005.52,0002.93,0001.91
2022-03-19 10:14:00,,0826.0,5.00,0.00,22.4,21.5,00.0,31.4,24.2,08.0,0000.0,0005.66,0002.95,0001.88
2022-03-19 10:15:00,,0826.0,5.00,0.00,22.4,21.5,00.0,31.4,24.2,08.0,0000.0,0005.84,0002.96,0001.87
2022-03-19 10:16:00,,0826.1,4.99,0.00,22.4,21.5,00.0,31.4,24.2,08.0,0000.0,0005.84,0002.89,0001.85
2022-03-19 10:17:00,,0826.2,5.00,0.00,22.4,21.5,00.0,31.4,24.2,07.9,0000.0,0005.93,0002.82,0001.83
2022-03-19 10:18:00,,0826.1,5.00,0.00,22.4,21.5,00.0,31.4,24.1,07.9,0000.0,0005.76,0002.77,0001.82
2022-03-19 10:19:00,,0826.1,5.00,0.00,22.4,21.5,00.0,31.4,24.1,07.9,0000.0,0005.65,0002.73,0001.81
2022-03-19 10:20:00,,0826.1,5.00,0.00,22.4,21.5,00.0,31.4,24.1,07.9,0000.0,0005.59,0002.70,0001.81
2022-03-19 10:21:00,,0826.0,5.00,0.00,22.4,21.5,00.0,31.4,24.2,08.0,0000.0,0005.72,0002.71,0001.81
2022-03-19 10:22:00,,0826.1,5.00,0.00,22.4,21.5,00.0,31.4,24.2,08.0,0000.0,0005.65,0002.68,0001.81
2022-03-19 10:23:00,,0826.2,5.00,0.00,22.4,21.5,00.0,31.4,24.1,08.1,0000.0,0005.58,0002.67,0001.78
2022-03-19 10:24:00,,0826.2,5.00,0.00,22.4,21.5,00.0,31.4,24.2,08.1,0000.0,0005.36,0002.65,0001.77
2022-03-19 10:25:00,,0826.2,5.00,0.00,22.4,21.5,00.0,31.4,24.2,08.1,0000.0,0005.68,0002.73,0001.77
2022-03-19 10:26:00,,0826.2,5.00,0.00,22.4,21.5,00.0,31.4,24.2,08.1,0000.0,0005.82,0002.82,0001.77
2022-03-19 10:27:00,,0826.2,5.00,0.00,22.4,21.5,00.0,31.4,24.2,08.1,0000.0,0005.92,0002.90,0001.79
2022-03-19 10:28:00,,0826.2,5.01,0.00,22.5,22.0,00.0,31.4,24.3,08.1,0000.0,0005.65,0002.93,0001.79
2022-03-19 10:29:00,,0826.2,4.99,0.00,22.6,22.8,00.0,31.5,24.6,08.1,0000.0,0006.00,0003.06,0001.79
2022-03-19 10:30:00,,0826.3,5.00,0.00,22.7,23.0,00.0,31.5,24.7,08.4,0000.0,0006.05,0003.08,0001.79
2022-03-19 10:31:00,,0826.2,4.99,0.00,22.7,22.9,00.0,31.5,24.7,08.4,0000.0,0006.64,0003.09,0001.78
2022-03-19 10:32:00,,0826.3,5.01,0.00,22.8,22.7,00.0,31.6,24.6,08.4,0000.0,0007.14,0003.05,0001.78
2022-03-19 10:33:00,,0826.3,4.99,0.00,22.7,22.5,00.0,31.6,24.6,08.2,0000.0,0007.78,0003.06,0001.77
2022-03-19 10:34:00,,0826.3,5.00,0.00,22.7,22.4,00.0,31.6,24.6,08.2,0000.0,0007.80,0003.07,0001.78
2022-03-19 10:35:00,,0826.4,5.00,0.00,22.7,22.3,00.0,31.6,24.6,08.2,0000.0,0007.85,0003.10,0001.78
2022-03-19 10:36:00,,0826.4,5.00,0.00,22.7,22.2,00.0,31.6,24.6,08.1,0000.0,0007.67,0003.01,0001.79
2022-03-19 10:37:00,,0826.4,5.00,0.00,22.7,22.1,00.0,31.6,24.6,08.1,0000.0,0007.47,0002.92,0001.80
2022-03-19 10:38:00,,0826.4,5.00,0.00,22.7,22.1,00.0,31.6,24.6,08.1,0000.0,0007.58,0002.96,0001.81
2022-03-19 10:39:00,,0826.4,5.01,0.00,22.7,22.0,00.0,31.6,24.6,08.1,0000.0,0007.68,0003.01,0001.82
2022-03-19 10:40:00,,0826.4,5.00,0.00,22.7,22.0,00.0,31.6,24.6,08.1,0000.0,0007.55,0002.92,0001.84
2022-03-19 10:41:00,,0826.5,5.00,0.00,22.7,22.0,00.0,31.6,24.5,08.0,0000.0,0007.65,0002.98,0001.84
2022-03-19 10:42:00,,0826.4,5.00,0.00,22.7,21.9,00.0,31.6,24.5,08.1,0000.0,0007.30,0003.00,0001.85
2022-03-19 10:43:00,,0826.5,5.00,0.00,22.7,21.9,00.0,31.6,24.5,08.2,0000.0,0006.80,0003.09,0001.88
2022-03-19 10:44:00,,0826.5,5.00,0.00,22.7,21.8,00.0,31.6,24.5,08.2,0000.0,0005.67,0003.13,0001.89
2022-03-19 10:45:00,,0826.5,5.00,0.00,22.7,21.8,00.0,31.6,24.5,08.2,0000.0,0005.65,0003.13,0001.91
2022-03-19 10:46:00,,0826.5,4.99,0.00,22.7,21.8,00.0,31.7,24.5,08.2,0000.0,0005.73,0003.15,0001.92
2022-03-19 10:47:00,,0826.5,5.00,0.00,22.7,21.8,00.0,31.6,24.5,08.2,0000.0,0006.08,0003.17,0001.93
2022-03-19 10:48:00,,0826.5,5.01,0.00,22.7,21.8,00.0,31.6,24.5,08.2,0000.0,0006.66,0003.19,0001.93
2022-03-19 10:49:00,,0826.5,5.00,0.00,22.7,21.8,00.0,31.6,24.4,08.3,0000.0,0006.41,0003.16,0001.94
2022-03-19 10:50:00,,0826.5,5.00,0.00,22.7,21.8,00.0,31.6,24.4,08.2,0000.0,0006.36,0003.17,0001.94
2022-03-19 10:51:00,,0826.5,5.00,0.00,22.7,21.8,00.0,31.7,24.4,08.2,0000.0,0006.29,0003.17,0001.94
2022-03-19 10:52:00,,0826.5,5.00,0.00,22.7,21.7,00.0,31.6,24.4,08.2,0000.0,0006.08,0003.11,0001.95
2022-03-19 10:53:00,,0826.5,5.00,0.00,22.7,21.7,00.0,31.6,24.4,08.1,0000.0,0006.03,0003.03,0001.94
2022-03-19 10:54:00,,0826.5,5.00,0.00,22.7,21.7,00.0,31.6,24.4,08.2,0000.0,0006.10,0002.98,0001.93
2022-03-19 10:55:00,,0826.5,5.00,0.00,22.7,21.7,00.0,31.6,24.4,08.2,0000.0,0006.12,0002.96,0001.93
2022-03-19 10:56:00,,0826.5,5.00,0.00,22.7,21.7,00.0,31.6,24.5,08.2,0000.0,0006.12,0002.95,0001.92
2022-03-19 10:57:00,,0826.5,5.00,0.00,22.7,21.7,00.0,31.6,24.5,08.2,0000.0,0006.04,0002.94,0001.92
2022-03-19 10:58:00,,0826.5,5.00,0.00,22.7,21.7,00.0,31.6,24.4,08.2,0000.0,0005.85,0002.94,0001.91
2022-03-19 10:59:00,,0826.5,5.00,0.00,22.7,21.7,00.0,31.6,24.4,08.3,0000.0,0005.39,0002.95,0001.91
